Location: Maiden
(35.5760°N, 81.2120°W)
Time: 04:51:00
(UTC-04:00)

Aureole 1 Rocket - Pass Details

Date: 14 June 2018
Orbit: 378 x 1390 km, 73.9° (Epoch: 19 August)

Event Time Altitude Azimuth Distance (km) Brightness Sun altitude
Exits shadow 22:41:02 23° 52° (NE) 896 3.9 -19.5°
Drops below altitude 10° 22:42:35 10° 34° (NE) 1,485 5.2 -19.7°
Sets 22:44:50 0° 26° (NNE) 2,442 6.5 -19.9°
